Location: Lafig�re
(44.4503°N, 4.0357°E)
Time: 11:19:23
(UTC+00:00)

Cosmos 2278 Rocket - Visible Passes

Search period start: 16 January 2021 00:00
Search period end: 26 January 2021 00:00
Orbit: 839 x 847 km, 71.0° (Epoch: 15 January)

Date Brightness Start Highest point End Pass type
(mag) Time Alt. Az. Time Alt. Az. Time Alt. Az.
16 Jan 4.6 04:24:32 10° N 04:28:04 16° NE 04:31:34 10° E visible
16 Jan 2.3 06:07:22 10° NNW 06:13:05 81° ENE 06:18:46 10° SSE visible
17 Jan 4.7 04:10:02 10° N 04:13:27 16° NE 04:16:50 10° E visible
17 Jan 2.3 05:52:47 10° NNW 05:58:31 78° ENE 06:04:11 10° SSE visible
18 Jan 4.7 03:56:07 11° NNE 03:58:50 15° NE 04:02:06 10° ENE visible
18 Jan 2.4 05:38:14 10° NNW 05:43:57 75° ENE 05:49:37 10° SSE visible
19 Jan 4.7 03:42:14 13° NNE 03:44:13 15° NE 03:47:22 10° ENE visible
19 Jan 2.4 05:24:05 12° NNW 05:29:23 72° ENE 05:35:02 10° SSE visible
20 Jan 4.7 03:28:26 14° NNE 03:29:37 14° NE 03:32:37 10° ENE visible
20 Jan 2.4 05:10:18 17° NNW 05:14:48 70° ENE 05:20:27 10° SSE visible
20 Jan 4.7 20:02:03 10° SSW 20:02:22 12° SSW 20:02:22 12° SSW visible
21 Jan 4.8 03:14:43 14° NE 03:15:00 14° NE 03:17:53 10° ENE visible
21 Jan 2.5 04:56:36 23° NNW 05:00:14 67° ENE 05:05:52 10° SE visible
21 Jan 3.6 06:39:51 10° WNW 06:43:43 19° W 06:47:33 10° SW visible
21 Jan 4.1 18:06:52 10° SE 18:07:29 12° SE 18:07:29 12° SE visible
21 Jan 4.0 19:47:29 10° SSW 19:49:25 22° SSW 19:49:25 22° SSW visible
22 Jan 4.9 03:01:07 13° NE 03:01:07 13° NE 03:03:07 10° ENE visible
22 Jan 2.5 04:43:00 32° N 04:45:40 64° ENE 04:51:17 10° SE visible
22 Jan 3.5 06:25:12 10° NW 06:29:10 20° W 06:33:08 10° SW visible
22 Jan 3.9 17:52:32 10° SE 17:54:32 14° ESE 17:54:32 14° ESE visible
22 Jan 3.1 19:32:55 10° SSW 19:36:28 40° SSW 19:36:28 40° SSW visible
23 Jan 5.0 02:47:37 11° ENE 02:47:37 11° ENE 02:48:20 10° ENE visible
23 Jan 2.6 04:29:31 45° N 04:31:05 62° ENE 04:36:41 10° SE visible
23 Jan 3.4 06:11:25 13° WNW 06:14:38 21° W 06:18:43 10° SSW visible
23 Jan 3.8 17:38:14 10° SE 17:40:49 13° E 17:41:33 13° E visible
23 Jan 2.2 19:18:21 10° SSW 19:23:28 74° SSW 19:23:28 74° SSW visible
23 Jan 5.1 21:05:11 10° W 21:05:24 11° W 21:05:24 11° W visible
24 Jan 2.6 04:16:08 58° NE 04:16:31 59° ENE 04:22:06 10° SE visible
24 Jan 3.4 05:58:02 18° WNW 06:00:06 22° W 06:04:18 10° SSW visible
24 Jan 3.9 17:23:56 10° ESE 17:26:17 13° E 17:28:30 10° ENE visible
24 Jan 2.1 19:03:47 10° SSW 19:09:28 88° ESE 19:10:25 64° NNE visible
24 Jan 4.8 20:50:29 10° W 20:52:21 16° WNW 20:52:21 16° WNW visible
25 Jan 2.9 04:02:53 50° E 04:02:53 50° E 04:07:30 10° SE visible
25 Jan 3.3 05:44:48 22° W 05:45:34 23° W 05:49:51 10° SSW visible
25 Jan 2.1 18:49:14 10° SSW 18:54:55 84° ESE 18:57:17 37° NNE visible
25 Jan 4.5 20:35:47 10° W 20:39:12 19° NW 20:39:12 19° NW visible
